Zurück zum Katalog

FENGYUN 1C DEB

AktivSSO
NORAD 35102·DEBRIS·🇨🇳 China

Gestartet May 10, 1999 von Taiyuan Satellite Launch Center

Loading…

Nächste Überflüge (nächste 24 Stunden)

TLE

AktuellSource: Space-Track

Epoche: Sep 13, 2026, 06:32 UTC

1 35102U 99025DKE 26256.27240667  .00000738  00000-0  29980-3 0  9990
2 35102  98.4777 264.1156 0059587   4.6085 355.5633 14.29485745688345

Verfolge FENGYUN 1C DEB in Echtzeit mit AllMySat

Download on the App Store